OneWeb SL0390

operational
NORAD ID: 50470 Int'l Des: 2021-132 Owner: ONEWEBN Country: UK Constellation: oneweb
LEOCIRCULARPOLARONEWEB_TYPE

About OneWeb SL0390

Description loading...

Live Position

Loading 3D Globe...

Upcoming Passes

Altitude History

Altitude vs Time

uPlot chart will show altitude changes over time

Two-Line Element Set

1 50470U 21132B 25341.15783196 .00000096 00000-0 21473-3 0 9995
2 50470 87.9113 44.0582 0001494 95.3928 264.7374 13.17648285192790
Epoch: Dec 7, 2025 • Age: 24 hours

Current Status

Altitude 1200.4 km
Velocity 7.26 km/s
Sub-Earth Point 48.35°N, 82.15°E
Launch Date Dec 27, 2021
Age 3.9 years
Type internet

Technical Details

Classification Payload
Mass 148.00 kg
Dry Mass 140.00 kg
Total Mass 148.00 kg
Length 1.30 m
Diameter 1.00 m
Span 5.00 m
Shape Trapezoid+2 pan
Manufacturer ONEWUS
Bus Type ARROW
Phase Status In Orbit
Owner/State ONEWEBN/UK

Large Constellations

Loading constellations...